When you browse on this site, cookies collect data to enhance your experience and personalize the content and advertising you see.
Visit our Privacy Policy to learn more. By continuing to use the site, you agree to this use of cookies and data.
  • In Hungary
  • List of Countries
  • For 7 days
  • Water Temperature
  • Weather Map
  • News
  • Weather Widgets
  • user-avatar
    Login

    Hourly Weather Dover

    Today, 21 November, Thursday

    Time Temperature Precipitation Wind Pressure Humidity
    00:00 +3°C° 0 mm 5 mps 765 mmHg 79%
    01:00 +2°C° 0 mm 5 mps 765 mmHg 80%
    02:00 +2°C° 0 mm 5 mps 765 mmHg 80%
    03:00 +2°C° 0 mm 5 mps 765 mmHg 79%
    04:00 +2°C° 0 mm 5 mps 766 mmHg 79%
    05:00 +1°C° 0 mm 5 mps 766 mmHg 80%
    06:00 +1°C° 0 mm 4 mps 766 mmHg 82%
    07:00 0°C° 0 mm 4 mps 766 mmHg 84%
    08:00 +3°C° 0 mm 4 mps 766 mmHg 78%
    09:00 +4°C° 0 mm 3 mps 766 mmHg 72%
    10:00 +7°C° 0 mm 3 mps 766 mmHg 66%
    11:00 +8°C° 0 mm 3 mps 766 mmHg 62%
    12:00 +9°C° 0 mm 3 mps 765 mmHg 59%
    13:00 +10°C° 0 mm 3 mps 765 mmHg 55%
    14:00 +10°C° 0 mm 3 mps 765 mmHg 57%
    15:00 +9°C° 0 mm 2 mps 764 mmHg 59%
    16:00 +9°C° 0 mm 2 mps 764 mmHg 61%
    17:00 +8°C° 0 mm 2 mps 764 mmHg 62%
    18:00 +8°C° 0 mm 2 mps 764 mmHg 62%
    19:00 +8°C° 0 mm 2 mps 764 mmHg 62%
    20:00 +7°C° 0 mm 3 mps 763 mmHg 64%
    21:00 +6°C° 0 mm 4 mps 762 mmHg 66%
    22:00 +6°C° 0 mm 5 mps 762 mmHg 67%
    23:00 +7°C° 0 mm 5 mps 761 mmHg 68%

    Tomorrow, 22 November, Friday

    Time Temperature Precipitation Wind Pressure Humidity
    00:00 +8°C° 0 mm 6 mps 761 mmHg 68%
    01:00 +8°C° 0 mm 6 mps 760 mmHg 68%
    02:00 +9°C° 0 mm 6 mps 759 mmHg 70%
    03:00 +9°C° 0 mm 6 mps 759 mmHg 71%
    04:00 +9°C° 0 mm 5 mps 758 mmHg 73%
    05:00 +9°C° 0 mm 6 mps 758 mmHg 75%
    06:00 +9°C° 0 mm 6 mps 758 mmHg 77%
    07:00 +9°C° 0 mm 6 mps 757 mmHg 78%
    08:00 +10°C° 0 mm 6 mps 757 mmHg 76%
    09:00 +10°C° 0 mm 6 mps 757 mmHg 74%
    10:00 +11°C° 0 mm 6 mps 756 mmHg 72%
    11:00 +11°C° 0.2 mm 7 mps 757 mmHg 75%
    12:00 +11°C° 0.2 mm 7 mps 757 mmHg 77%
    13:00 +11°C° 0.2 mm 7 mps 757 mmHg 80%
    14:00 +10°C° 0 mm 7 mps 757 mmHg 73%
    15:00 +10°C° 0 mm 6 mps 757 mmHg 67%
    16:00 +9°C° 0 mm 5 mps 758 mmHg 60%
    17:00 +8°C° 0 mm 5 mps 758 mmHg 59%
    18:00 +7°C° 0 mm 5 mps 759 mmHg 59%
    19:00 +6°C° 0 mm 5 mps 760 mmHg 59%
    20:00 +5°C° 0 mm 5 mps 761 mmHg 59%
    21:00 +4°C° 0 mm 4 mps 761 mmHg 59%
    22:00 +4°C° 0 mm 4 mps 762 mmHg 59%
    23:00 +3°C° 0 mm 4 mps 762 mmHg 61%

    Day after tomorrow, 23 November, Saturday

    Time Temperature Precipitation Wind Pressure Humidity
    00:00 +1°C° 0 mm 4 mps 762 mmHg 62%
    01:00 +1°C° 0 mm 4 mps 762 mmHg 64%
    02:00 0°C° 0 mm 4 mps 762 mmHg 65%
    03:00 +1°C° 0 mm 3 mps 762 mmHg 67%
    04:00 +1°C° 0 mm 3 mps 761 mmHg 68%
    05:00 0°C° 0 mm 3 mps 762 mmHg 68%
    06:00 +1°C° 0 mm 2 mps 762 mmHg 68%
    07:00 +1°C° 0 mm 2 mps 762 mmHg 69%
    08:00 +2°C° 0 mm 2 mps 762 mmHg 62%
    09:00 +4°C° 0 mm 1 mps 762 mmHg 56%
    10:00 +4°C° 0 mm 0 mps 762 mmHg 50%
    11:00 +6°C° 0 mm 1 mps 761 mmHg 47%
    12:00 +7°C° 0 mm 1 mps 760 mmHg 44%
    13:00 +7°C° 0 mm 2 mps 759 mmHg 41%
    14:00 +7°C° 0 mm 2 mps 759 mmHg 46%
    15:00 +7°C° 0 mm 3 mps 758 mmHg 51%
    16:00 +5°C° 0 mm 3 mps 757 mmHg 55%
    17:00 +5°C° 1 mm 3 mps 756 mmHg 67%
    18:00 +5°C° 1 mm 3 mps 755 mmHg 78%
    19:00 +4°C° 1 mm 4 mps 755 mmHg 89%
    20:00 +5°C° 1.1 mm 3 mps 753 mmHg 92%
    21:00 +7°C° 1.1 mm 3 mps 752 mmHg 95%
    22:00 +8°C° 1.1 mm 2 mps 751 mmHg 98%
    23:00 +8°C° 5.3 mm 2 mps 750 mmHg 98%

    24 November, Sunday

    Time Temperature Precipitation Wind Pressure Humidity
    00:00 +9°C° 5.3 mm 2 mps 748 mmHg 98%
    01:00 +9°C° 5.3 mm 2 mps 747 mmHg 98%
    02:00 +9°C° 1.2 mm 3 mps 747 mmHg 97%
    03:00 +7°C° 1.2 mm 4 mps 747 mmHg 96%
    04:00 +7°C° 1.2 mm 5 mps 747 mmHg 94%
    05:00 +7°C° 0 mm 6 mps 747 mmHg 90%
    06:00 +5°C° 0 mm 7 mps 748 mmHg 86%
    07:00 +4°C° 0 mm 8 mps 748 mmHg 82%
    08:00 +5°C° 0 mm 8 mps 749 mmHg 79%
    09:00 +5°C° 0 mm 9 mps 749 mmHg 75%
    10:00 +5°C° 0 mm 9 mps 750 mmHg 71%
    11:00 +5°C° 0 mm 9 mps 750 mmHg 69%
    12:00 +6°C° 0 mm 9 mps 750 mmHg 67%
    13:00 +6°C° 0 mm 9 mps 750 mmHg 65%
    14:00 +6°C° 0 mm 9 mps 751 mmHg 65%
    15:00 +5°C° 0 mm 8 mps 751 mmHg 65%
    16:00 +5°C° 0 mm 8 mps 752 mmHg 64%
    17:00 +4°C° 0 mm 8 mps 753 mmHg 67%
    18:00 +3°C° 0 mm 7 mps 754 mmHg 69%
    19:00 +2°C° 0 mm 7 mps 755 mmHg 72%
    20:00 +2°C° 0 mm 6 mps 755 mmHg 72%
    21:00 +2°C° 0 mm 6 mps 756 mmHg 73%
    22:00 +2°C° 0 mm 5 mps 756 mmHg 73%
    23:00 +1°C° 0 mm 5 mps 757 mmHg 74%

    25 November, Monday

    Time Temperature Precipitation Wind Pressure Humidity
    00:00 +1°C° 0 mm 5 mps 757 mmHg 75%
    01:00 +1°C° 0 mm 5 mps 757 mmHg 76%
    02:00 +1°C° 0 mm 5 mps 757 mmHg 77%
    03:00 +1°C° 0 mm 5 mps 757 mmHg 77%
    04:00 +1°C° 0 mm 5 mps 758 mmHg 77%
    05:00 0°C° 0 mm 4 mps 758 mmHg 78%
    06:00 0°C° 0 mm 4 mps 758 mmHg 79%
    07:00 0°C° 0 mm 4 mps 758 mmHg 80%
    08:00 +1°C° 0 mm 4 mps 759 mmHg 74%
    09:00 +4°C° 0 mm 4 mps 759 mmHg 68%
    10:00 +5°C° 0 mm 5 mps 759 mmHg 63%
    11:00 +6°C° 0 mm 4 mps 759 mmHg 61%
    12:00 +6°C° 0 mm 4 mps 758 mmHg 59%
    13:00 +7°C° 0 mm 4 mps 758 mmHg 57%
    14:00 +8°C° 0 mm 3 mps 758 mmHg 60%
    15:00 +8°C° 0 mm 3 mps 758 mmHg 62%
    16:00 +7°C° 0 mm 3 mps 758 mmHg 65%
    17:00 +5°C° 0 mm 3 mps 758 mmHg 69%
    18:00 +5°C° 0 mm 3 mps 759 mmHg 72%
    19:00 +4°C° 0 mm 3 mps 759 mmHg 76%
    20:00 +5°C° 0 mm 2 mps 759 mmHg 78%
    21:00 +4°C° 0 mm 2 mps 759 mmHg 79%
    22:00 +4°C° 0 mm 2 mps 760 mmHg 81%
    23:00 +4°C° 0 mm 2 mps 760 mmHg 83%

    26 November, Tuesday

    Time Temperature Precipitation Wind Pressure Humidity
    00:00 +4°C° 0 mm 2 mps 760 mmHg 85%
    01:00 +4°C° 0 mm 2 mps 760 mmHg 87%
    02:00 +5°C° 0 mm 1 mps 760 mmHg 87%
    03:00 +5°C° 0 mm 1 mps 760 mmHg 87%
    04:00 +5°C° 0 mm 1 mps 760 mmHg 88%
    05:00 +5°C° 0 mm 1 mps 760 mmHg 88%
    06:00 +5°C° 0 mm 1 mps 761 mmHg 89%
    07:00 +4°C° 0 mm 2 mps 761 mmHg 90%
    08:00 +6°C° 0 mm 2 mps 762 mmHg 85%
    09:00 +8°C° 0 mm 2 mps 762 mmHg 80%
    10:00 +9°C° 0 mm 2 mps 762 mmHg 75%
    11:00 +10°C° 0 mm 3 mps 762 mmHg 72%
    12:00 +12°C° 0 mm 3 mps 761 mmHg 69%
    13:00 +13°C° 0 mm 3 mps 761 mmHg 66%
    14:00 +13°C° 0 mm 4 mps 761 mmHg 69%
    15:00 +12°C° 0 mm 4 mps 761 mmHg 72%
    16:00 +12°C° 0 mm 4 mps 760 mmHg 75%
    17:00 +12°C° 0 mm 4 mps 760 mmHg 75%
    18:00 +10°C° 0 mm 5 mps 760 mmHg 76%
    19:00 +10°C° 0 mm 5 mps 760 mmHg 77%
    20:00 +10°C° 0 mm 5 mps 760 mmHg 80%
    21:00 +10°C° 0 mm 5 mps 760 mmHg 83%
    22:00 +10°C° 0 mm 5 mps 760 mmHg 86%
    23:00 +10°C° 0 mm 5 mps 760 mmHg 88%
    Show more